Regional Weather Roundup
Issued by NWS Green Bay, WI

Home | Current Version | Previous Version | Text Only | Print | Product List | Glossary On
Versions: 1 2 3 4 5 6 7 8 9 10 11 12 13 14 15 16 17 18 19 20 21 22 23 24 25 26 27 28 29 30 31 32 33 34 35 36 37 38 39 40 41 42 43 44 45 46 47 48 49 50
000
ASUS43 KGRB 292210
RWRGRB

NORTH-CENTRAL AND NORTHEAST WISCONSIN REGIONAL WEATHER ROUNDUP
NATIONAL WEATHER SERVICE GREEN BAY WI
500 PM CDT SUN MAR 29 2015

WIZ005-009-010>012-018-019-292300-
NORTH CENTRAL WISCONSIN

CITY           SKY/WX    TMP DP  RH WIND       PRES   REMARKS
IRONWOOD       CLOUDY    36  34  93 NW17      29.56R
MANITOWISH WTR CLOUDY    34  33  95 NW17G26   29.56R
ARBOR VITAE    CLOUDY    37  34  90 NW15G25   29.56R
EAGLE RIVER    LGT SNOW  34  31  89 NW22      29.52R
LAND O LAKES   LGT SNOW  34  32  92 NW13G28   29.51R
RHINELANDER    CLOUDY    35  31  85 NW14G30   29.55R
PHILLIPS       CLOUDY    36  33  89 NW12G20   29.61R
ANTIGO         CLOUDY    34  32  92 NW20G30   29.54R
TOMAHAWK       CLOUDY    35  32  88 NW15G25   29.58R
MERRILL        CLOUDY    37  34  88 NW18G28   29.59R
$$

WIZ013-073-292300-
NORTHEAST WISCONSIN

CITY           SKY/WX    TMP DP  RH WIND       PRES   REMARKS
IRON MOUNTAIN  LGT RAIN  36  32  85 W8        29.45S
MARINETTE      CLOUDY    36  32  87 SW10      29.51S
OCONTO         CLOUDY    35  35 100 SW10      29.54R
$$

WIZ017-030-035>037-045-292300-
CENTRAL WISCONSIN

CITY           SKY/WX    TMP DP  RH WIND       PRES   REMARKS
MEDFORD        LGT RAIN  37  34  90 NW15      29.63R
WAUSAU         CLOUDY    38  33  82 NW18G31   29.59R
MOSINEE          N/A     36  36 100 SW21G28   29.61R
MARSHFIELD     CLOUDY    40  35  83 NW18G28   29.65R
WISC RAPIDS    CLOUDY    41  34  76 NW20G28   29.67R
STEVENS POINT  CLOUDY    37  33  82 NW14G28   29.63R
WAUPACA        CLOUDY    41  38  89 W15G22    29.59R
SHAWANO        DRIZZLE   40  37  91 W10       29.55R
CLINTONVILLE   DRIZZLE   37  36  93 W12       29.56R
$$

WIZ038-039-048-051-292300-
FOX VALLEY

CITY           SKY/WX    TMP DP  RH WIND       PRES   REMARKS
NWS GREEN BAY  LGT RAIN  37  35  92 SW14G23   29.56S FOG
APPLETON       DRIZZLE   36  36 100 SW18G25   29.58R
OSHKOSH        CLOUDY    37  34  89 SW13G24   29.59R FOG
FOND DU LAC    LGT RAIN  37  34  89 SW14G25   29.62R FOG
$$

WIZ022-050-052-292300-
EAST CENTRAL WISCONSIN

CITY           SKY/WX    TMP DP  RH WIND       PRES   REMARKS
STURGEON BAY   CLOUDY    36  30  80 SW15G22   29.55F
MANITOWOC      CLOUDY    38  35  89 MISG      29.58F FOG
SHEBOYGAN      MIX PCPN  37  34  89 SW17      29.61F FOG
$$

LMZ563-521-522-541>543-292300-
LAKESHORE

STATION/POSITION TIME  TEMP    WIND        PRES    VSBY  WAVE
                       AIR SEA DIR/SP/G                  HT/PER
                 (UTC) (F)     (DEG/KT/KT) (MB)    (MI)  (FT/S)
SHEBOYGAN LKSHOR 2200   37     210/ 19/ 22 1003.7F
KEWAUNEE LKSHORE 2200   37     220/ 10/ 18 1000.7S
CHAMBERS ISLAND  2200   33     180/  7/ 19 1000.0F
MENOMINEE LKSHOR 2200   35     210/ 11     1000.5R
$$


USA.gov is the U.S. government's official web portal to all federal, state and local government web resources and services.